Time,TemperatureF,DewpointF,PressureIn,WindDirection,WindDirectionDegrees,WindSpeedMPH,WindSpeedGustMPH,Humidity,HourlyPrecipIn,Conditions,Clouds,dailyrainin,SoftwareType,DateUTC
2013-05-31 00:01:00,79.2,78.6,30.69,East,90,0.0,0.0,98,0.00,RA,,0.00,WeatherDisplay:10.37,2013-05-31 04:01:00,
2013-05-31 00:06:00,79.3,78.7,30.69,ESE,112,4.2,4.2,98,0.00,RA,,0.00,WeatherDisplay:10.37,2013-05-31 04:06:00,
2013-05-31 00:11:00,79.3,78.7,30.74,ESE,112,5.8,5.8,98,0.00,CLR,,0.00,WeatherDisplay:10.37,2013-05-31 04:11:00,
2013-05-31 00:16:00,79.5,78.9,30.74,ESE,112,0.0,0.0,98,0.00,CLR,,0.00,WeatherDisplay:10.37,2013-05-31 04:16:00,
2013-05-31 00:21:00,79.7,79.1,30.79,SE,135,5.8,5.8,98,0.00,CLR,,0.00,WeatherDisplay:10.37,2013-05-31 04:21:00,
2013-05-31 00:26:00,79.7,79.1,30.79,SSE,158,7.3,7.3,98,0.00,CLR,,0.00,WeatherDisplay:10.37,2013-05-31 04:26:00,
2013-05-31 00:31:00,79.7,79.1,30.79,ESE,112,3.2,3.2,98,0.00,CLR,,0.00,WeatherDisplay:10.37,2013-05-31 04:31:00,
2013-05-31 00:36:00,79.7,79.1,30.75,SSE,158,6.9,6.9,98,0.00,CLR,,0.00,WeatherDisplay:10.37,2013-05-31 04:36:00,
2013-05-31 00:41:00,78.3,77.7,30.75,SSE,158,5.3,5.3,98,0.01,RA,,0.01,WeatherDisplay:10.37,2013-05-31 04:41:00,
2013-05-31 00:46:00,77.7,77.1,30.75,SE,135,4.6,4.6,98,0.01,RA,,0.01,WeatherDisplay:10.37,2013-05-31 04:46:00,
2013-05-31 00:51:00,77.9,77.3,30.75,ESE,112,4.6,4.6,98,0.01,,,0.01,WeatherDisplay:10.37,2013-05-31 04:51:00,
2013-05-31 00:56:00,78.1,77.5,30.75,South,180,2.2,2.2,98,0.01,CLR,,0.01,WeatherDisplay:10.37,2013-05-31 04:56:00,
2013-05-31 01:01:00,78.1,77.5,30.79,ESE,112,4.6,4.6,98,0.02,RA,,0.02,WeatherDisplay:10.37,2013-05-31 05:01:00,
2013-05-31 01:06:00,78.1,77.5,30.79,ENE,68,3.5,3.5,98,0.02,RA,,0.02,WeatherDisplay:10.37,2013-05-31 05:06:00,
2013-05-31 01:11:00,78.1,77.5,30.81,ESE,112,5.8,5.8,98,0.02,CLR,,0.02,WeatherDisplay:10.37,2013-05-31 05:11:00,
2013-05-31 01:16:00,78.1,77.5,30.81,ESE,112,2.3,2.3,98,0.02,CLR,,0.02,WeatherDisplay:10.37,2013-05-31 05:16:00,
2013-05-31 01:21:00,78.3,77.7,30.81,SE,135,0.0,0.0,98,0.02,CLR,,0.02,WeatherDisplay:10.37,2013-05-31 05:21:00,
2013-05-31 01:26:00,78.6,78.0,30.80,ESE,112,2.3,2.3,98,0.02,CLR,,0.02,WeatherDisplay:10.37,2013-05-31 05:26:00,
2013-05-31 01:31:00,78.6,78.0,30.80,ESE,112,5.8,5.8,98,0.03,RA,,0.03,WeatherDisplay:10.37,2013-05-31 05:31:00,
2013-05-31 01:36:00,78.8,78.2,30.82,ESE,112,3.5,3.5,98,0.03,RA,,0.03,WeatherDisplay:10.37,2013-05-31 05:36:00,
2013-05-31 01:41:00,78.8,78.2,30.82,ESE,112,0.0,0.0,98,0.02,CLR,,0.03,WeatherDisplay:10.37,2013-05-31 05:41:00,
2013-05-31 01:46:00,79.0,78.4,30.86,ESE,112,0.0,0.0,98,0.02,CLR,,0.03,WeatherDisplay:10.37,2013-05-31 05:46:00,
2013-05-31 01:51:00,79.2,78.6,30.86,ESE,112,4.2,4.2,98,0.02,CLR,,0.03,WeatherDisplay:10.37,2013-05-31 05:51:00,
2013-05-31 01:56:00,79.3,78.7,30.86,SSE,158,0.0,0.0,98,0.02,CLR,,0.03,WeatherDisplay:10.37,2013-05-31 05:56:00,
2013-05-31 02:01:00,79.3,78.7,30.85,ESE,112,3.5,3.5,98,0.01,CLR,,0.03,WeatherDisplay:10.37,2013-05-31 06:01:00,
2013-05-31 02:06:00,79.3,78.7,30.85,ESE,112,1.1,1.1,98,0.01,CLR,,0.03,WeatherDisplay:10.37,2013-05-31 06:06:00,
2013-05-31 02:11:00,79.3,78.7,30.82,ESE,112,2.3,2.3,98,0.01,CLR,,0.03,WeatherDisplay:10.37,2013-05-31 06:11:00,
2013-05-31 02:16:00,79.3,78.7,30.82,ESE,112,3.7,3.7,98,0.01,CLR,,0.03,WeatherDisplay:10.37,2013-05-31 06:16:00,
2013-05-31 02:21:00,79.3,78.7,30.57,ESE,112,3.5,3.5,98,0.01,CLR,,0.03,WeatherDisplay:10.37,2013-05-31 06:21:00,
2013-05-31 02:26:00,79.5,78.9,30.57,ESE,112,5.8,5.8,98,0.01,CLR,,0.03,WeatherDisplay:10.37,2013-05-31 06:26:00,
2013-05-31 02:31:00,79.5,78.9,30.57,ESE,112,0.0,0.0,98,0.00,CLR,,0.03,WeatherDisplay:10.37,2013-05-31 06:31:00,
2013-05-31 02:36:00,79.5,78.9,30.40,South,180,1.1,1.1,98,0.00,CLR,,0.03,WeatherDisplay:10.37,2013-05-31 06:36:00,
2013-05-31 02:41:00,79.3,78.7,30.40,NW,315,2.3,0.0,98,0.00,CLR,,0.03,WeatherDisplay:10.37,2013-05-31 06:41:00,
2013-05-31 02:46:00,79.3,78.7,30.29,ESE,112,0.0,0.0,98,0.00,CLR,,0.03,WeatherDisplay:10.37,2013-05-31 06:46:00,
2013-05-31 02:51:00,79.3,78.7,30.29,SE,135,0.0,0.0,98,0.00,CLR,,0.03,WeatherDisplay:10.37,2013-05-31 06:51:00,
2013-05-31 02:56:00,79.3,78.7,30.29,SSE,158,0.0,0.0,98,0.00,CLR,,0.03,WeatherDisplay:10.37,2013-05-31 06:56:00,
2013-05-31 03:01:00,79.3,78.7,30.22,South,180,1.1,1.1,98,0.00,CLR,,0.03,WeatherDisplay:10.37,2013-05-31 07:01:00,
2013-05-31 03:06:00,79.5,78.9,30.22,ESE,112,4.6,4.6,98,0.00,CLR,,0.03,WeatherDisplay:10.37,2013-05-31 07:06:00,
2013-05-31 03:11:00,79.5,78.9,30.17,ESE,112,4.6,4.6,98,0.00,CLR,,0.03,WeatherDisplay:10.37,2013-05-31 07:11:00,
2013-05-31 03:16:00,79.5,78.9,30.17,SSE,158,2.7,0.0,98,0.00,CLR,,0.03,WeatherDisplay:10.37,2013-05-31 07:16:00,
2013-05-31 03:21:00,79.5,78.9,30.17,East,90,0.0,0.0,98,0.00,CLR,,0.03,WeatherDisplay:10.37,2013-05-31 07:21:00,
2013-05-31 03:26:00,79.3,78.7,30.13,East,90,4.6,0.0,98,0.00,CLR,,0.03,WeatherDisplay:10.37,2013-05-31 07:26:00,
2013-05-31 03:31:00,79.3,78.7,30.13,ESE,112,0.0,0.0,98,0.00,CLR,,0.03,WeatherDisplay:10.37,2013-05-31 07:31:00,
2013-05-31 03:36:00,79.3,78.7,30.13,ESE,112,3.5,3.5,98,0.00,CLR,,0.03,WeatherDisplay:10.37,2013-05-31 07:36:00,
2013-05-31 03:41:00,79.5,78.9,30.13,ESE,112,4.6,0.0,98,0.00,CLR,,0.03,WeatherDisplay:10.37,2013-05-31 07:41:00,
2013-05-31 03:46:00,79.5,78.9,30.43,ESE,112,2.3,2.3,98,0.00,CLR,,0.03,WeatherDisplay:10.37,2013-05-31 07:46:00,
2013-05-31 03:51:00,79.5,78.9,30.43,SE,135,3.2,3.2,98,0.00,CLR,,0.03,WeatherDisplay:10.37,2013-05-31 07:51:00,
2013-05-31 03:56:00,79.5,78.9,30.43,SSE,158,0.0,0.0,98,0.00,CLR,,0.03,WeatherDisplay:10.37,2013-05-31 07:56:00,
2013-05-31 04:01:00,79.5,78.9,30.59,SE,135,2.7,2.7,98,0.00,CLR,,0.03,WeatherDisplay:10.37,2013-05-31 08:01:00,
2013-05-31 04:06:00,79.5,78.9,30.59,ESE,112,0.0,0.0,98,0.00,CLR,,0.03,WeatherDisplay:10.37,2013-05-31 08:06:00,
2013-05-31 04:11:00,79.5,78.9,30.66,SE,135,0.0,0.0,98,0.00,CLR,,0.03,WeatherDisplay:10.37,2013-05-31 08:11:00,
2013-05-31 04:16:00,79.3,78.7,30.66,ESE,112,3.5,3.5,98,0.00,CLR,,0.03,WeatherDisplay:10.37,2013-05-31 08:16:00,
2013-05-31 04:21:00,79.3,78.7,30.66,ESE,112,4.6,4.6,98,0.00,CLR,,0.03,WeatherDisplay:10.37,2013-05-31 08:21:00,
2013-05-31 04:26:00,79.3,78.7,30.68,South,180,0.0,0.0,98,0.00,CLR,,0.03,WeatherDisplay:10.37,2013-05-31 08:26:00,
2013-05-31 04:31:00,79.3,78.7,30.68,SSE,158,0.0,0.0,98,0.00,CLR,,0.03,WeatherDisplay:10.37,2013-05-31 08:31:00,
2013-05-31 04:36:00,79.5,78.9,30.74,ESE,112,0.0,0.0,98,0.00,CLR,,0.03,WeatherDisplay:10.37,2013-05-31 08:36:00,
2013-05-31 04:41:00,79.7,79.1,30.74,SW,225,0.0,0.0,98,0.00,CLR,,0.03,WeatherDisplay:10.37,2013-05-31 08:41:00,
2013-05-31 04:46:00,79.7,79.1,30.79,ESE,112,0.0,0.0,98,0.00,CLR,,0.03,WeatherDisplay:10.37,2013-05-31 08:46:00,
2013-05-31 04:51:00,79.9,79.3,30.79,SSE,158,0.0,0.0,98,0.00,CLR,,0.03,WeatherDisplay:10.37,2013-05-31 08:51:00,
2013-05-31 04:56:00,79.9,79.3,30.79,SE,135,0.0,0.0,98,0.00,CLR,,0.03,WeatherDisplay:10.37,2013-05-31 08:56:00,
2013-05-31 05:01:00,79.9,79.3,30.78,SSE,158,0.0,0.0,98,0.00,CLR,,0.03,WeatherDisplay:10.37,2013-05-31 09:01:00,
2013-05-31 05:06:00,79.7,79.1,30.78,East,90,3.5,3.5,98,0.00,CLR,,0.03,WeatherDisplay:10.37,2013-05-31 09:06:00,
2013-05-31 05:11:00,79.5,78.9,30.80,ESE,112,2.2,2.2,98,0.00,CLR,,0.03,WeatherDisplay:10.37,2013-05-31 09:11:00,
2013-05-31 05:16:00,79.3,78.7,30.80,East,90,0.0,0.0,98,0.00,CLR,,0.03,WeatherDisplay:10.37,2013-05-31 09:16:00,
2013-05-31 05:21:00,79.3,78.7,30.84,ESE,112,0.0,0.0,98,0.00,CLR,,0.03,WeatherDisplay:10.37,2013-05-31 09:21:00,
2013-05-31 05:26:00,79.3,78.7,30.84,ESE,112,0.0,0.0,98,0.00,CLR,,0.03,WeatherDisplay:10.37,2013-05-31 09:26:00,
2013-05-31 05:31:00,79.2,78.6,30.84,ESE,112,0.0,0.0,98,0.00,CLR,,0.03,WeatherDisplay:10.37,2013-05-31 09:31:00,
2013-05-31 05:36:00,79.2,78.6,30.86,ESE,112,0.0,0.0,98,0.00,CLR,,0.03,WeatherDisplay:10.37,2013-05-31 09:36:00,
2013-05-31 05:41:00,79.2,78.6,30.86,ESE,112,0.0,0.0,98,0.00,CLR,,0.03,WeatherDisplay:10.37,2013-05-31 09:41:00,
2013-05-31 05:46:00,79.3,78.7,30.82,ESE,112,3.7,3.7,98,0.00,CLR,,0.03,WeatherDisplay:10.37,2013-05-31 09:46:00,
2013-05-31 05:51:00,79.5,78.9,30.82,ESE,112,5.8,5.8,98,0.01,RA,,0.04,WeatherDisplay:10.37,2013-05-31 09:51:00,
2013-05-31 05:56:00,79.5,78.9,30.82,ESE,112,2.3,2.3,98,0.01,RA,,0.04,WeatherDisplay:10.37,2013-05-31 09:56:00,
2013-05-31 06:01:00,79.3,78.7,30.57,South,180,0.0,0.0,98,0.01,CLR,,0.04,WeatherDisplay:10.37,2013-05-31 10:01:00,
2013-05-31 06:06:00,79.3,78.7,30.57,SSE,158,4.6,4.6,98,0.01,CLR,,0.04,WeatherDisplay:10.37,2013-05-31 10:06:00,
2013-05-31 06:11:00,79.5,78.9,30.40,ESE,112,5.8,5.8,98,0.01,CLR,,0.04,WeatherDisplay:10.37,2013-05-31 10:11:00,
2013-05-31 06:16:00,79.5,78.9,30.40,ESE,112,0.0,0.0,98,0.01,CLR,,0.04,WeatherDisplay:10.37,2013-05-31 10:16:00,
2013-05-31 06:21:00,79.7,79.1,30.31,SSE,158,1.1,1.1,98,0.01,CLR,,0.04,WeatherDisplay:10.37,2013-05-31 10:21:00,
2013-05-31 06:26:00,79.9,79.3,30.31,South,180,0.0,0.0,98,0.01,CLR,,0.04,WeatherDisplay:10.37,2013-05-31 10:26:00,
2013-05-31 06:31:00,79.7,79.1,30.31,East,90,2.3,2.3,98,0.01,CLR,,0.04,WeatherDisplay:10.37,2013-05-31 10:31:00,
2013-05-31 06:36:00,79.3,78.7,30.23,SE,135,2.3,2.3,98,0.01,CLR,,0.04,WeatherDisplay:10.37,2013-05-31 10:36:00,
2013-05-31 06:41:00,79.3,78.7,30.23,ESE,112,0.0,0.0,98,0.01,CLR,,0.04,WeatherDisplay:10.37,2013-05-31 10:41:00,
2013-05-31 06:46:00,79.3,78.7,30.16,ESE,112,0.0,0.0,98,0.01,CLR,,0.04,WeatherDisplay:10.37,2013-05-31 10:46:00,
2013-05-31 06:51:00,79.3,78.7,30.16,ESE,112,4.2,4.2,98,0.00,CLR,,0.04,WeatherDisplay:10.37,2013-05-31 10:51:00,
2013-05-31 06:56:00,79.3,78.7,30.16,East,90,0.0,0.0,98,0.00,CLR,,0.04,WeatherDisplay:10.37,2013-05-31 10:56:00,
2013-05-31 07:01:00,79.3,78.7,30.18,ESE,112,2.3,2.3,98,0.00,CLR,,0.04,WeatherDisplay:10.37,2013-05-31 11:01:00,
2013-05-31 07:06:00,79.3,78.7,30.18,SE,135,0.0,0.0,98,0.00,CLR,,0.04,WeatherDisplay:10.37,2013-05-31 11:06:00,
2013-05-31 07:11:00,79.3,78.7,30.39,ESE,112,0.0,0.0,98,0.01,RA,,0.05,WeatherDisplay:10.37,2013-05-31 11:11:00,
2013-05-31 07:16:00,79.2,78.6,30.39,ESE,112,0.0,0.0,98,0.02,RA,,0.06,WeatherDisplay:10.37,2013-05-31 11:16:00,
2013-05-31 07:21:00,79.2,78.6,30.48,SSE,158,1.1,0.0,98,0.02,RA,,0.06,WeatherDisplay:10.37,2013-05-31 11:21:00,
2013-05-31 07:26:00,79.0,78.4,30.48,ESE,112,0.0,0.0,98,0.04,RA,,0.08,WeatherDisplay:10.37,2013-05-31 11:26:00,
2013-05-31 07:31:00,79.2,78.6,30.48,ESE,112,0.0,0.0,98,0.04,RA,,0.08,WeatherDisplay:10.37,2013-05-31 11:31:00,
2013-05-31 07:36:00,79.3,78.7,30.53,East,90,0.0,0.0,98,0.04,,,0.08,WeatherDisplay:10.37,2013-05-31 11:36:00,
2013-05-31 07:41:00,79.5,78.9,30.53,East,90,0.0,0.0,98,0.04,CLR,,0.08,WeatherDisplay:10.37,2013-05-31 11:41:00,
2013-05-31 07:46:00,79.7,79.1,30.33,ESE,112,0.0,0.0,98,0.04,CLR,,0.08,WeatherDisplay:10.37,2013-05-31 11:46:00,
2013-05-31 07:51:00,79.5,78.9,30.33,ESE,112,4.6,0.0,98,0.07,RA,,0.12,WeatherDisplay:10.37,2013-05-31 11:51:00,
2013-05-31 07:56:00,79.3,78.7,30.19,ESE,112,0.0,0.0,98,0.08,RA,,0.13,WeatherDisplay:10.37,2013-05-31 11:56:00,
2013-05-31 08:01:00,79.3,78.7,30.19,ESE,112,0.0,0.0,98,0.09,RA,,0.13,WeatherDisplay:10.37,2013-05-31 12:01:00,
2013-05-31 08:06:00,79.7,79.1,30.19,SSE,158,0.0,0.0,98,0.09,RA,,0.13,WeatherDisplay:10.37,2013-05-31 12:06:00,
2013-05-31 08:11:00,80.1,79.5,30.11,East,90,0.0,0.0,98,0.08,CLR,,0.13,WeatherDisplay:10.37,2013-05-31 12:11:00,
2013-05-31 08:16:00,80.2,79.6,30.11,SE,135,1.1,0.0,98,0.07,CLR,,0.13,WeatherDisplay:10.37,2013-05-31 12:16:00,
2013-05-31 08:21:00,80.8,80.2,30.06,ESE,112,0.0,0.0,98,0.07,CLR,,0.13,WeatherDisplay:10.37,2013-05-31 12:21:00,
2013-05-31 08:26:00,81.0,80.4,30.06,ESE,112,2.3,0.0,98,0.05,CLR,,0.13,WeatherDisplay:10.37,2013-05-31 12:26:00,
2013-05-31 08:31:00,81.5,80.9,30.06,ESE,112,0.0,0.0,98,0.05,CLR,,0.13,WeatherDisplay:10.37,2013-05-31 12:31:00,
2013-05-31 08:36:00,82.0,81.4,30.02,SE,135,3.5,3.5,98,0.05,CLR,,0.13,WeatherDisplay:10.37,2013-05-31 12:36:00,
2013-05-31 08:41:00,82.8,82.2,30.02,ESE,112,1.7,1.7,98,0.05,CLR,,0.13,WeatherDisplay:10.37,2013-05-31 12:41:00,
2013-05-31 08:46:00,83.3,82.7,29.98,SSE,158,3.5,3.5,98,0.05,CLR,,0.13,WeatherDisplay:10.37,2013-05-31 12:46:00,
2013-05-31 08:51:00,83.5,82.9,29.98,ESE,112,0.0,0.0,98,0.02,CLR,,0.13,WeatherDisplay:10.37,2013-05-31 12:51:00,
2013-05-31 08:56:00,83.5,82.9,29.98,East,90,0.0,0.0,98,0.01,CLR,,0.13,WeatherDisplay:10.37,2013-05-31 12:56:00,
2013-05-31 09:01:00,83.5,82.9,29.95,SE,135,2.2,2.2,98,0.00,CLR,,0.13,WeatherDisplay:10.37,2013-05-31 13:01:00,
2013-05-31 09:06:00,83.7,83.1,29.95,ESE,112,5.8,5.8,98,0.00,CLR,,0.13,WeatherDisplay:10.37,2013-05-31 13:06:00,
2013-05-31 09:11:00,84.0,83.4,29.93,ESE,112,4.6,4.6,98,0.00,CLR,,0.13,WeatherDisplay:10.37,2013-05-31 13:11:00,
2013-05-31 09:16:00,83.8,83.2,29.93,SSW,202,4.6,4.6,98,0.00,CLR,,0.13,WeatherDisplay:10.37,2013-05-31 13:16:00,
2013-05-31 09:21:00,83.5,82.9,29.90,ESE,112,4.6,4.6,98,0.00,CLR,,0.13,WeatherDisplay:10.37,2013-05-31 13:21:00,
2013-05-31 09:26:00,83.5,82.9,29.90,SSE,158,5.8,5.8,98,0.00,CLR,,0.13,WeatherDisplay:10.37,2013-05-31 13:26:00,
2013-05-31 09:31:00,83.1,82.5,29.90,West,270,6.9,6.9,98,0.00,CLR,,0.13,WeatherDisplay:10.37,2013-05-31 13:31:00,
2013-05-31 09:36:00,83.8,83.2,29.87,ESE,112,2.3,2.3,98,0.00,CLR,,0.13,WeatherDisplay:10.37,2013-05-31 13:36:00,
2013-05-31 09:41:00,83.5,82.9,29.87,ESE,112,6.3,6.3,98,0.00,CLR,,0.13,WeatherDisplay:10.37,2013-05-31 13:41:00,
2013-05-31 09:46:00,83.7,83.1,29.84,SSE,158,0.0,0.0,98,0.00,CLR,,0.13,WeatherDisplay:10.37,2013-05-31 13:46:00,
2013-05-31 09:51:00,83.3,82.7,29.84,ESE,112,3.7,3.7,98,0.00,CLR,,0.13,WeatherDisplay:10.37,2013-05-31 13:51:00,
2013-05-31 09:56:00,82.6,82.0,29.84,SSE,158,3.5,3.5,98,0.00,CLR,,0.13,WeatherDisplay:10.37,2013-05-31 13:56:00,
2013-05-31 10:01:00,83.1,82.5,29.94,ESE,112,0.0,0.7,98,0.00,CLR,,0.13,WeatherDisplay:10.37,2013-05-31 14:01:00,
2013-05-31 10:06:00,84.7,84.1,29.94,SSE,158,4.2,4.5,98,0.00,CLR,,0.13,WeatherDisplay:10.37,2013-05-31 14:06:00,
2013-05-31 10:11:00,84.4,83.8,30.18,SE,135,6.3,6.3,98,0.00,CLR,,0.13,WeatherDisplay:10.37,2013-05-31 14:11:00,
2013-05-31 10:16:00,84.4,83.8,30.18,East,90,4.6,4.6,98,0.00,CLR,,0.13,WeatherDisplay:10.37,2013-05-31 14:16:00,
2013-05-31 10:21:00,84.4,83.8,30.30,South,180,0.0,0.0,98,0.00,CLR,,0.13,WeatherDisplay:10.37,2013-05-31 14:21:00,
2013-05-31 10:26:00,83.3,82.7,30.30,NNW,338,5.8,5.8,98,0.00,CLR,,0.13,WeatherDisplay:10.37,2013-05-31 14:26:00,
2013-05-31 10:31:00,82.6,82.0,30.30,ENE,68,5.8,5.8,98,0.00,CLR,,0.13,WeatherDisplay:10.37,2013-05-31 14:31:00,
2013-05-31 10:36:00,84.6,84.0,30.41,South,180,5.8,5.8,98,0.00,CLR,,0.13,WeatherDisplay:10.37,2013-05-31 14:36:00,
2013-05-31 10:41:00,84.7,84.1,30.41,NE,45,0.0,0.0,98,0.00,CLR,,0.13,WeatherDisplay:10.37,2013-05-31 14:41:00,
2013-05-31 10:46:00,83.7,83.1,30.46,ESE,112,6.9,6.9,98,0.00,CLR,,0.13,WeatherDisplay:10.37,2013-05-31 14:46:00,
2013-05-31 10:51:00,83.5,82.9,30.46,South,180,8.1,8.1,98,0.00,CLR,,0.13,WeatherDisplay:10.37,2013-05-31 14:51:00,
2013-05-31 10:56:00,85.1,84.5,30.46,South,180,5.8,5.8,98,0.00,CLR,,0.13,WeatherDisplay:10.37,2013-05-31 14:56:00,
2013-05-31 11:01:00,84.7,84.1,30.46,South,180,5.8,0.0,98,0.00,CLR,,0.13,WeatherDisplay:10.37,2013-05-31 15:01:00,
2013-05-31 11:06:00,84.9,84.3,30.47,SSE,158,2.2,2.2,98,0.00,CLR,,0.13,WeatherDisplay:10.37,2013-05-31 15:06:00,
2013-05-31 11:11:00,84.9,84.3,30.47,North,360,3.2,3.2,98,0.00,CLR,,0.13,WeatherDisplay:10.37,2013-05-31 15:11:00,
2013-05-31 11:16:00,85.5,84.9,30.52,ESE,112,3.5,3.5,98,0.00,CLR,,0.13,WeatherDisplay:10.37,2013-05-31 15:16:00,
2013-05-31 11:21:00,85.6,85.0,30.52,ESE,112,5.8,5.8,98,0.00,CLR,,0.13,WeatherDisplay:10.37,2013-05-31 15:21:00,
2013-05-31 11:26:00,85.6,85.0,30.52,ESE,112,6.9,6.9,98,0.00,CLR,,0.13,WeatherDisplay:10.37,2013-05-31 15:26:00,
2013-05-31 11:31:00,85.5,84.9,30.55,ENE,68,5.8,6.2,98,0.00,CLR,,0.13,WeatherDisplay:10.37,2013-05-31 15:31:00,
2013-05-31 11:36:00,86.2,85.6,30.55,SE,135,6.3,6.3,98,0.00,CLR,,0.13,WeatherDisplay:10.37,2013-05-31 15:36:00,
2013-05-31 11:41:00,86.7,86.1,30.56,South,180,4.6,4.6,98,0.00,CLR,,0.13,WeatherDisplay:10.37,2013-05-31 15:41:00,
2013-05-31 11:46:00,86.5,85.9,30.56,ESE,112,2.3,2.3,98,0.00,CLR,,0.13,WeatherDisplay:10.37,2013-05-31 15:46:00,
2013-05-31 11:51:00,86.0,85.4,30.57,SE,135,5.8,5.8,98,0.00,CLR,,0.13,WeatherDisplay:10.37,2013-05-31 15:51:00,
2013-05-31 11:56:00,85.6,85.0,30.57,East,90,6.8,6.8,98,0.00,CLR,,0.13,WeatherDisplay:10.37,2013-05-31 15:56:00,
2013-05-31 12:01:00,86.2,85.6,30.57,South,180,6.9,6.9,98,0.00,CLR,,0.13,WeatherDisplay:10.37,2013-05-31 16:01:00,
2013-05-31 12:06:00,85.8,85.2,30.59,SW,225,6.9,6.9,98,0.00,CLR,,0.13,WeatherDisplay:10.37,2013-05-31 16:06:00,
2013-05-31 12:11:00,85.6,85.0,30.59,ESE,112,8.1,8.1,98,0.00,CLR,,0.13,WeatherDisplay:10.37,2013-05-31 16:11:00,
2013-05-31 12:16:00,86.2,85.6,30.58,SSE,158,5.8,5.8,98,0.00,CLR,,0.13,WeatherDisplay:10.37,2013-05-31 16:16:00,
2013-05-31 12:21:00,84.9,84.3,30.58,South,180,5.8,5.8,98,0.00,CLR,,0.13,WeatherDisplay:10.37,2013-05-31 16:21:00,
2013-05-31 12:26:00,86.7,86.1,30.58,SW,225,5.8,5.8,98,0.00,CLR,,0.13,WeatherDisplay:10.37,2013-05-31 16:26:00,
2013-05-31 12:31:00,86.0,85.4,30.59,ESE,112,9.2,9.2,98,0.00,CLR,,0.13,WeatherDisplay:10.37,2013-05-31 16:31:00,
2013-05-31 12:36:00,84.9,84.3,30.59,ESE,112,5.8,5.8,98,0.00,CLR,,0.13,WeatherDisplay:10.37,2013-05-31 16:36:00,
2013-05-31 12:41:00,86.2,85.6,30.59,SSE,158,8.3,8.3,98,0.00,CLR,,0.13,WeatherDisplay:10.37,2013-05-31 16:41:00,
2013-05-31 12:46:00,84.9,84.3,30.59,South,180,5.8,5.9,98,0.00,CLR,,0.13,WeatherDisplay:10.37,2013-05-31 16:46:00,
2013-05-31 12:51:00,86.7,86.1,30.59,ESE,112,6.9,6.9,98,0.00,CLR,,0.13,WeatherDisplay:10.37,2013-05-31 16:51:00,
2013-05-31 12:56:00,86.2,85.6,30.59,ENE,68,8.1,8.1,98,0.00,CLR,,0.13,WeatherDisplay:10.37,2013-05-31 16:56:00,
2013-05-31 13:01:00,87.1,86.5,30.59,East,90,1.1,0.0,98,0.00,CLR,,0.13,WeatherDisplay:10.37,2013-05-31 17:01:00,
2013-05-31 13:06:00,86.0,85.4,30.57,SE,135,0.0,0.0,98,0.00,CLR,,0.13,WeatherDisplay:10.37,2013-05-31 17:06:00,
2013-05-31 13:11:00,85.8,85.2,30.57,South,180,8.1,8.1,98,0.00,CLR,,0.13,WeatherDisplay:10.37,2013-05-31 17:11:00,
2013-05-31 13:16:00,86.7,86.1,30.57,SE,135,3.5,3.5,98,0.00,CLR,,0.13,WeatherDisplay:10.37,2013-05-31 17:16:00,
2013-05-31 13:21:00,85.8,85.2,30.57,SSE,158,5.8,5.8,98,0.00,CLR,,0.13,WeatherDisplay:10.37,2013-05-31 17:21:00,
2013-05-31 13:26:00,86.5,85.9,30.58,ESE,112,5.8,5.8,98,0.00,CLR,,0.13,WeatherDisplay:10.37,2013-05-31 17:26:00,
2013-05-31 13:31:00,85.5,84.9,30.58,SE,135,5.8,5.8,98,0.00,CLR,,0.13,WeatherDisplay:10.37,2013-05-31 17:31:00,
2013-05-31 13:36:00,84.7,84.1,30.58,SSE,158,4.7,4.7,98,0.00,CLR,,0.13,WeatherDisplay:10.37,2013-05-31 17:36:00,
2013-05-31 13:41:00,84.7,84.1,30.57,SSE,158,4.7,4.7,98,0.00,CLR,,0.13,WeatherDisplay:10.37,2013-05-31 17:41:00,
2013-05-31 13:46:00,85.8,85.2,30.57,ESE,112,5.8,5.8,98,0.00,CLR,,0.13,WeatherDisplay:10.37,2013-05-31 17:46:00,
2013-05-31 13:51:00,86.2,85.6,30.54,South,180,5.8,5.8,98,0.00,CLR,,0.13,WeatherDisplay:10.37,2013-05-31 17:51:00,
2013-05-31 13:56:00,86.4,85.8,30.54,ENE,68,9.2,9.2,98,0.00,CLR,,0.13,WeatherDisplay:10.37,2013-05-31 17:56:00,
2013-05-31 14:01:00,85.3,84.7,30.54,ESE,112,3.5,0.0,98,0.00,CLR,,0.13,WeatherDisplay:10.37,2013-05-31 18:01:00,
2013-05-31 14:06:00,84.9,84.3,30.55,North,360,5.8,5.8,98,0.00,CLR,,0.13,WeatherDisplay:10.37,2013-05-31 18:06:00,
2013-05-31 14:11:00,86.7,86.1,30.55,ESE,112,5.8,5.8,98,0.00,CLR,,0.13,WeatherDisplay:10.37,2013-05-31 18:11:00,
2013-05-31 14:16:00,86.9,86.3,30.54,South,180,1.7,1.7,98,0.00,CLR,,0.13,WeatherDisplay:10.37,2013-05-31 18:16:00,
2013-05-31 14:21:00,86.0,85.4,30.54,SSE,158,8.3,8.3,98,0.00,CLR,,0.13,WeatherDisplay:10.37,2013-05-31 18:21:00,
2013-05-31 14:26:00,85.8,85.2,30.52,South,180,5.8,5.8,98,0.00,CLR,,0.13,WeatherDisplay:10.37,2013-05-31 18:26:00,
2013-05-31 14:31:00,86.0,85.4,30.52,ESE,112,4.6,4.6,98,0.00,CLR,,0.13,WeatherDisplay:10.37,2013-05-31 18:31:00,
2013-05-31 14:36:00,84.9,84.3,30.52,ESE,112,5.8,5.8,98,0.00,CLR,,0.13,WeatherDisplay:10.37,2013-05-31 18:36:00,
2013-05-31 14:41:00,85.1,84.5,30.50,ESE,112,4.6,4.6,98,0.00,CLR,,0.13,WeatherDisplay:10.37,2013-05-31 18:41:00,
2013-05-31 14:46:00,82.6,82.0,30.50,ESE,112,4.2,4.2,98,0.00,CLR,,0.13,WeatherDisplay:10.37,2013-05-31 18:46:00,
2013-05-31 14:51:00,83.1,82.5,30.53,ESE,112,4.7,4.7,98,0.00,CLR,,0.13,WeatherDisplay:10.37,2013-05-31 18:51:00,
2013-05-31 14:56:00,83.3,82.7,30.53,East,90,5.8,5.8,98,0.00,CLR,,0.13,WeatherDisplay:10.37,2013-05-31 18:56:00,
2013-05-31 15:01:00,83.8,83.2,30.53,ESE,112,6.8,6.8,98,0.00,CLR,,0.13,WeatherDisplay:10.37,2013-05-31 19:01:00,
2013-05-31 15:06:00,83.7,83.1,30.53,ESE,112,4.6,4.6,98,0.00,CLR,,0.13,WeatherDisplay:10.37,2013-05-31 19:06:00,
2013-05-31 15:11:00,84.4,83.8,30.53,ESE,112,5.8,5.8,98,0.00,CLR,,0.13,WeatherDisplay:10.37,2013-05-31 19:11:00,
2013-05-31 15:16:00,84.4,83.8,30.52,North,360,0.0,0.0,98,0.00,CLR,,0.13,WeatherDisplay:10.37,2013-05-31 19:16:00,
2013-05-31 15:21:00,84.4,83.8,30.52,NE,45,2.2,2.2,98,0.00,CLR,,0.13,WeatherDisplay:10.37,2013-05-31 19:21:00,
2013-05-31 15:26:00,84.2,83.6,30.51,ESE,112,0.0,0.8,98,0.00,CLR,,0.13,WeatherDisplay:10.37,2013-05-31 19:26:00,
2013-05-31 15:31:00,84.6,84.0,30.51,ESE,112,4.6,4.6,98,0.00,CLR,,0.13,WeatherDisplay:10.37,2013-05-31 19:31:00,
2013-05-31 15:36:00,84.2,83.6,30.51,ESE,112,5.8,5.8,98,0.00,CLR,,0.13,WeatherDisplay:10.37,2013-05-31 19:36:00,
2013-05-31 15:41:00,84.0,83.4,30.53,ESE,112,5.8,5.8,98,0.00,CLR,,0.13,WeatherDisplay:10.37,2013-05-31 19:41:00,
2013-05-31 15:47:00,84.0,83.4,30.53,East,90,6.3,6.3,98,0.00,CLR,,0.13,WeatherDisplay:10.37,2013-05-31 19:47:00,
2013-05-31 15:52:00,84.2,83.6,30.52,SSE,158,4.7,4.7,98,0.00,CLR,,0.13,WeatherDisplay:10.37,2013-05-31 19:52:00,
2013-05-31 15:57:00,83.5,82.9,30.52,ESE,112,3.7,3.7,98,0.00,CLR,,0.13,WeatherDisplay:10.37,2013-05-31 19:57:00,
2013-05-31 16:02:00,82.6,82.0,30.52,North,360,2.3,2.3,98,0.00,CLR,,0.13,WeatherDisplay:10.37,2013-05-31 20:02:00,
2013-05-31 16:07:00,81.9,81.3,30.55,SSE,158,0.0,0.0,98,0.00,CLR,,0.13,WeatherDisplay:10.37,2013-05-31 20:07:00,
2013-05-31 16:12:00,81.7,81.1,30.55,South,180,4.6,4.6,98,0.00,CLR,,0.13,WeatherDisplay:10.37,2013-05-31 20:12:00,
2013-05-31 16:17:00,82.0,81.4,30.57,SSE,158,2.7,2.7,98,0.00,CLR,,0.13,WeatherDisplay:10.37,2013-05-31 20:17:00,
2013-05-31 16:22:00,81.3,80.7,30.57,SSE,158,5.8,5.8,98,0.00,CLR,,0.13,WeatherDisplay:10.37,2013-05-31 20:22:00,
2013-05-31 16:27:00,81.7,81.1,30.56,WNW,292,3.5,3.5,98,0.00,CLR,,0.13,WeatherDisplay:10.37,2013-05-31 20:27:00,
2013-05-31 16:32:00,82.2,81.6,30.56,South,180,2.3,2.3,98,0.00,CLR,,0.13,WeatherDisplay:10.37,2013-05-31 20:32:00,
2013-05-31 16:37:00,82.6,82.0,30.56,South,180,2.3,2.3,98,0.00,CLR,,0.13,WeatherDisplay:10.37,2013-05-31 20:37:00,
2013-05-31 16:42:00,83.3,82.7,30.56,North,360,1.7,1.7,98,0.00,CLR,,0.13,WeatherDisplay:10.37,2013-05-31 20:42:00,
2013-05-31 16:47:00,82.6,82.0,30.56,SSW,202,4.6,4.6,98,0.00,CLR,,0.13,WeatherDisplay:10.37,2013-05-31 20:47:00,
2013-05-31 16:52:00,81.9,81.3,30.58,North,360,1.7,1.7,98,0.04,RA,,0.17,WeatherDisplay:10.37,2013-05-31 20:52:00,
2013-05-31 16:57:00,80.4,79.8,30.58,North,360,1.1,1.1,98,0.05,RA,,0.18,WeatherDisplay:10.37,2013-05-31 20:57:00,
2013-05-31 17:02:00,80.4,79.8,30.58,North,360,0.0,0.0,98,0.05,RA,,0.18,WeatherDisplay:10.37,2013-05-31 21:02:00,
2013-05-31 17:07:00,80.2,79.6,30.61,North,360,0.0,0.0,98,0.05,,,0.18,WeatherDisplay:10.37,2013-05-31 21:07:00,
2013-05-31 17:12:00,80.6,80.0,30.61,North,360,3.5,3.5,98,0.05,CLR,,0.18,WeatherDisplay:10.37,2013-05-31 21:12:00,
2013-05-31 17:17:00,80.8,80.2,30.59,South,180,1.1,1.1,98,0.06,RA,,0.19,WeatherDisplay:10.37,2013-05-31 21:17:00,
2013-05-31 17:22:00,81.1,80.5,30.59,SE,135,0.0,0.0,98,0.07,RA,,0.20,WeatherDisplay:10.37,2013-05-31 21:22:00,
2013-05-31 17:27:00,81.1,80.5,30.62,East,90,3.5,3.5,98,0.07,RA,,0.20,WeatherDisplay:10.37,2013-05-31 21:27:00,
2013-05-31 17:32:00,81.3,80.7,30.62,SSE,158,4.6,4.6,98,0.07,,,0.20,WeatherDisplay:10.37,2013-05-31 21:32:00,
2013-05-31 17:37:00,81.7,81.1,30.62,ESE,112,0.0,0.0,98,0.07,CLR,,0.20,WeatherDisplay:10.37,2013-05-31 21:37:00,
2013-05-31 17:42:00,81.5,80.9,30.64,ESE,112,0.0,0.0,98,0.07,CLR,,0.20,WeatherDisplay:10.37,2013-05-31 21:42:00,
2013-05-31 17:47:00,81.5,80.9,30.64,SE,135,2.7,2.7,98,0.07,CLR,,0.20,WeatherDisplay:10.37,2013-05-31 21:47:00,
2013-05-31 17:52:00,81.5,80.9,30.63,ESE,112,0.0,0.0,98,0.03,CLR,,0.20,WeatherDisplay:10.37,2013-05-31 21:52:00,
2013-05-31 17:57:00,81.7,81.1,30.63,ESE,112,0.0,0.0,98,0.02,CLR,,0.20,WeatherDisplay:10.37,2013-05-31 21:57:00,
2013-05-31 18:02:00,81.7,81.1,30.63,SSE,158,0.0,0.0,98,0.02,CLR,,0.20,WeatherDisplay:10.37,2013-05-31 22:02:00,
2013-05-31 18:07:00,81.9,81.3,30.62,SE,135,2.7,2.7,98,0.02,CLR,,0.20,WeatherDisplay:10.37,2013-05-31 22:07:00,
2013-05-31 18:12:00,81.9,81.3,30.62,SSE,158,3.5,3.5,98,0.02,CLR,,0.20,WeatherDisplay:10.37,2013-05-31 22:12:00,
2013-05-31 18:17:00,82.2,81.6,30.49,NE,45,0.0,0.0,98,0.01,CLR,,0.20,WeatherDisplay:10.37,2013-05-31 22:17:00,
2013-05-31 18:22:00,82.2,81.6,30.49,ENE,68,4.7,4.7,98,0.00,CLR,,0.20,WeatherDisplay:10.37,2013-05-31 22:22:00,
2013-05-31 18:27:00,82.2,81.6,30.25,ESE,112,3.7,3.7,98,0.00,CLR,,0.20,WeatherDisplay:10.37,2013-05-31 22:27:00,
2013-05-31 18:32:00,82.2,81.6,30.25,SSE,158,3.5,3.5,98,0.00,CLR,,0.20,WeatherDisplay:10.37,2013-05-31 22:32:00,
2013-05-31 18:37:00,82.2,81.6,30.25,ESE,112,6.9,6.9,98,0.00,CLR,,0.20,WeatherDisplay:10.37,2013-05-31 22:37:00,
2013-05-31 18:42:00,82.4,81.8,30.12,ESE,112,0.0,0.0,98,0.00,CLR,,0.20,WeatherDisplay:10.37,2013-05-31 22:42:00,
2013-05-31 18:47:00,82.2,81.6,30.12,SE,135,4.7,4.7,98,0.00,CLR,,0.20,WeatherDisplay:10.37,2013-05-31 22:47:00,
2013-05-31 18:52:00,81.9,81.3,30.03,East,90,0.0,0.0,98,0.00,CLR,,0.20,WeatherDisplay:10.37,2013-05-31 22:52:00,
2013-05-31 18:57:00,81.9,81.3,30.03,ESE,112,4.6,4.6,98,0.00,CLR,,0.20,WeatherDisplay:10.37,2013-05-31 22:57:00,
2013-05-31 19:02:00,81.9,81.3,30.03,ESE,112,0.0,0.0,98,0.00,CLR,,0.20,WeatherDisplay:10.37,2013-05-31 23:02:00,
2013-05-31 19:07:00,81.7,81.1,30.10,ESE,112,0.0,0.0,98,0.00,CLR,,0.20,WeatherDisplay:10.37,2013-05-31 23:07:00,
2013-05-31 19:12:00,81.3,80.7,30.10,NNW,338,1.1,1.1,98,0.00,CLR,,0.20,WeatherDisplay:10.37,2013-05-31 23:12:00,
2013-05-31 19:17:00,81.3,80.7,30.31,NNW,338,0.0,0.0,98,0.00,CLR,,0.20,WeatherDisplay:10.37,2013-05-31 23:17:00,
2013-05-31 19:22:00,81.1,80.5,30.31,South,180,0.0,0.0,98,0.00,CLR,,0.20,WeatherDisplay:10.37,2013-05-31 23:22:00,
2013-05-31 19:27:00,81.1,80.5,30.31,SE,135,0.0,0.0,98,0.00,CLR,,0.20,WeatherDisplay:10.37,2013-05-31 23:27:00,
2013-05-31 19:32:00,81.1,80.5,30.38,SE,135,0.0,0.0,98,0.00,CLR,,0.20,WeatherDisplay:10.37,2013-05-31 23:32:00,
2013-05-31 19:37:00,81.1,80.5,30.38,ESE,112,0.0,0.0,98,0.00,CLR,,0.20,WeatherDisplay:10.37,2013-05-31 23:37:00,
2013-05-31 19:42:00,81.1,80.5,30.45,ESE,112,0.0,0.0,98,0.00,CLR,,0.20,WeatherDisplay:10.37,2013-05-31 23:42:00,
2013-05-31 19:47:00,81.1,80.5,30.45,NE,45,2.3,2.3,98,0.00,CLR,,0.20,WeatherDisplay:10.37,2013-05-31 23:47:00,
2013-05-31 19:52:00,81.1,80.5,30.45,SE,135,0.0,0.0,98,0.00,CLR,,0.20,WeatherDisplay:10.37,2013-05-31 23:52:00,
2013-05-31 19:57:00,80.8,80.2,30.52,SE,135,0.0,0.0,98,0.00,CLR,,0.20,WeatherDisplay:10.37,2013-05-31 23:57:00,
2013-05-31 20:02:00,80.4,79.8,30.52,SSE,158,4.6,4.6,98,0.00,CLR,,0.20,WeatherDisplay:10.37,2013-06-01 00:02:00,
2013-05-31 20:07:00,80.2,79.6,30.53,SE,135,0.0,0.0,98,0.02,RA,,0.22,WeatherDisplay:10.37,2013-06-01 00:07:00,
2013-05-31 20:12:00,80.2,79.6,30.53,SSE,158,0.0,0.0,98,0.02,RA,,0.22,WeatherDisplay:10.37,2013-06-01 00:12:00,
2013-05-31 20:17:00,79.9,79.3,30.52,South,180,0.0,0.0,98,0.02,,,0.22,WeatherDisplay:10.37,2013-06-01 00:17:00,
2013-05-31 20:22:00,79.9,79.3,30.52,NW,315,2.3,2.3,98,0.02,CLR,,0.22,WeatherDisplay:10.37,2013-06-01 00:22:00,
2013-05-31 20:27:00,79.9,79.3,30.52,NW,315,1.1,1.1,98,0.02,CLR,,0.22,WeatherDisplay:10.37,2013-06-01 00:27:00,
2013-05-31 20:32:00,79.9,79.3,30.53,NW,315,0.0,0.0,98,0.03,RA,,0.23,WeatherDisplay:10.37,2013-06-01 00:32:00,
2013-05-31 20:37:00,79.9,79.3,30.53,NW,315,0.0,0.0,98,0.03,RA,,0.23,WeatherDisplay:10.37,2013-06-01 00:37:00,
2013-05-31 20:42:00,79.9,79.3,30.50,NW,315,0.0,0.0,98,0.03,CLR,,0.23,WeatherDisplay:10.37,2013-06-01 00:42:00,
2013-05-31 20:47:00,79.9,79.3,30.50,NNW,338,0.0,0.0,98,0.03,CLR,,0.23,WeatherDisplay:10.37,2013-06-01 00:47:00,
2013-05-31 20:52:00,79.9,79.3,30.51,ESE,112,0.0,0.0,98,0.03,CLR,,0.23,WeatherDisplay:10.37,2013-06-01 00:52:00,
2013-05-31 20:57:00,80.1,79.5,30.51,NNW,338,2.3,0.0,98,0.03,CLR,,0.23,WeatherDisplay:10.37,2013-06-01 00:57:00,
2013-05-31 21:02:00,80.1,79.5,30.51,ESE,112,2.7,2.7,98,0.03,CLR,,0.23,WeatherDisplay:10.37,2013-06-01 01:02:00,
2013-05-31 21:07:00,80.2,79.6,30.51,SSE,158,3.5,3.5,98,0.01,CLR,,0.23,WeatherDisplay:10.37,2013-06-01 01:07:00,
2013-05-31 21:12:00,80.1,79.5,30.51,ESE,112,0.0,0.0,98,0.01,CLR,,0.23,WeatherDisplay:10.37,2013-06-01 01:12:00,
2013-05-31 21:17:00,80.1,79.5,30.53,ESE,112,0.0,0.0,98,0.01,CLR,,0.23,WeatherDisplay:10.37,2013-06-01 01:17:00,
2013-05-31 21:22:00,80.1,79.5,30.53,ESE,112,0.0,0.0,98,0.01,CLR,,0.23,WeatherDisplay:10.37,2013-06-01 01:22:00,
2013-05-31 21:27:00,80.1,79.5,30.54,ESE,112,0.0,0.0,98,0.01,CLR,,0.23,WeatherDisplay:10.37,2013-06-01 01:27:00,
2013-05-31 21:32:00,80.4,79.8,30.54,ESE,112,0.0,0.0,98,0.02,RA,,0.25,WeatherDisplay:10.37,2013-06-01 01:32:00,
2013-05-31 21:37:00,80.4,79.8,30.54,ESE,112,0.0,0.0,98,0.03,RA,,0.26,WeatherDisplay:10.37,2013-06-01 01:37:00,
2013-05-31 21:42:00,80.4,79.8,30.54,SE,135,0.0,0.0,98,0.03,RA,,0.26,WeatherDisplay:10.37,2013-06-01 01:42:00,
2013-05-31 21:47:00,80.2,79.6,30.54,ESE,112,0.0,0.0,98,0.03,CLR,,0.26,WeatherDisplay:10.37,2013-06-01 01:47:00,
2013-05-31 21:52:00,80.2,79.6,30.54,ESE,112,0.0,0.0,98,0.03,CLR,,0.26,WeatherDisplay:10.37,2013-06-01 01:52:00,
2013-05-31 21:57:00,80.2,79.6,30.53,ESE,112,0.0,0.0,98,0.03,CLR,,0.26,WeatherDisplay:10.37,2013-06-01 01:57:00,
2013-05-31 22:02:00,80.2,79.6,30.53,ESE,112,0.0,0.0,98,0.03,CLR,,0.26,WeatherDisplay:10.37,2013-06-01 02:02:00,
2013-05-31 22:07:00,80.2,79.6,30.54,ESE,112,0.0,0.0,98,0.03,CLR,,0.26,WeatherDisplay:10.37,2013-06-01 02:07:00,
2013-05-31 22:12:00,80.4,79.8,30.54,South,180,0.0,0.0,98,0.03,CLR,,0.26,WeatherDisplay:10.37,2013-06-01 02:12:00,
2013-05-31 22:17:00,80.4,79.8,30.54,ESE,112,0.0,0.0,98,0.04,RA,,0.27,WeatherDisplay:10.37,2013-06-01 02:17:00,
2013-05-31 22:22:00,80.6,80.0,30.54,ESE,112,2.3,2.3,98,0.04,RA,,0.27,WeatherDisplay:10.37,2013-06-01 02:22:00,
2013-05-31 22:27:00,80.6,80.0,30.54,East,90,3.2,3.2,98,0.04,CLR,,0.27,WeatherDisplay:10.37,2013-06-01 02:27:00,
2013-05-31 22:32:00,80.8,80.2,30.55,ESE,112,0.0,0.0,98,0.02,CLR,,0.27,WeatherDisplay:10.37,2013-06-01 02:32:00,
2013-05-31 22:37:00,81.0,80.4,30.55,ESE,112,0.0,0.0,98,0.01,CLR,,0.27,WeatherDisplay:10.37,2013-06-01 02:37:00,
2013-05-31 22:42:00,81.1,80.5,30.58,ESE,112,0.0,0.0,98,0.01,CLR,,0.27,WeatherDisplay:10.37,2013-06-01 02:42:00,
2013-05-31 22:47:00,81.3,80.7,30.58,SE,135,0.0,0.0,98,0.01,CLR,,0.27,WeatherDisplay:10.37,2013-06-01 02:47:00,
2013-05-31 22:52:00,81.3,80.7,30.62,SE,135,0.0,0.0,98,0.01,CLR,,0.27,WeatherDisplay:10.37,2013-06-01 02:52:00,
2013-05-31 22:57:00,81.5,80.9,30.62,ESE,112,0.0,0.0,98,0.01,CLR,,0.27,WeatherDisplay:10.37,2013-06-01 02:57:00,
2013-05-31 23:02:00,81.5,80.9,30.62,ESE,112,0.0,0.0,98,0.01,CLR,,0.27,WeatherDisplay:10.37,2013-06-01 03:02:00,
2013-05-31 23:07:00,81.5,80.9,30.62,ESE,112,4.6,4.6,98,0.01,CLR,,0.27,WeatherDisplay:10.37,2013-06-01 03:07:00,
2013-05-31 23:12:00,81.5,80.9,30.62,ESE,112,0.0,0.0,98,0.01,CLR,,0.27,WeatherDisplay:10.37,2013-06-01 03:12:00,
2013-05-31 23:17:00,81.7,81.1,30.62,ESE,112,6.3,6.3,98,0.00,CLR,,0.27,WeatherDisplay:10.37,2013-06-01 03:17:00,
2013-05-31 23:22:00,81.7,81.1,30.62,ESE,112,0.0,0.0,98,0.00,CLR,,0.27,WeatherDisplay:10.37,2013-06-01 03:22:00,
2013-05-31 23:27:00,81.5,80.9,30.62,ESE,112,0.0,0.0,98,0.00,CLR,,0.27,WeatherDisplay:10.37,2013-06-01 03:27:00,
2013-05-31 23:32:00,81.5,80.9,30.66,ESE,112,0.0,0.0,98,0.00,CLR,,0.27,WeatherDisplay:10.37,2013-06-01 03:32:00,
2013-05-31 23:37:00,81.5,80.9,30.66,ESE,112,4.7,4.7,98,0.00,CLR,,0.27,WeatherDisplay:10.37,2013-06-01 03:37:00,
2013-05-31 23:42:00,81.7,81.1,30.71,ESE,112,0.0,0.0,98,0.00,CLR,,0.27,WeatherDisplay:10.37,2013-06-01 03:42:00,
2013-05-31 23:47:00,81.7,81.1,30.71,ESE,112,0.0,0.0,98,0.00,CLR,,0.27,WeatherDisplay:10.37,2013-06-01 03:47:00,
2013-05-31 23:52:00,81.7,81.1,30.70,East,90,3.5,3.5,98,0.00,CLR,,0.27,WeatherDisplay:10.37,2013-06-01 03:52:00,
2013-05-31 23:57:00,81.7,81.1,30.70,ESE,112,4.6,4.6,98,0.00,CLR,,0.27,WeatherDisplay:10.37,2013-06-01 03:57:00,